Location: Caltech
(34.1382°N, 118.1253°W)
Time: 06:09:06
(UTC-07:00)

CZ-2C R/B - Visible Passes

Search period start: 21 April 2015 00:00
Search period end: 01 May 2015 00:00
Orbit: 704 x 909 km, 98.1° (Epoch: 20 April)

Date Brightness Start Highest point End Pass type
(mag) Time Alt. Az. Time Alt. Az. Time Alt. Az.
21 Apr 5.5 02:17:38 16° NNE 02:17:38 16° NNE 02:19:03 10° NNE visible
21 Apr 5.1 03:58:42 13° NW 03:58:42 13° NW 03:59:14 10° NW visible
22 Apr 5.8 01:52:33 11° NE 01:52:33 11° NE 01:53:01 10° NE visible
22 Apr 4.8 03:33:37 19° NNW 03:33:37 19° NNW 03:35:02 10° NNW visible
23 Apr 4.7 03:08:32 24° N 03:08:32 24° N 03:10:28 10° N visible
24 Apr 4.9 02:43:28 24° NNE 02:43:28 24° NNE 02:45:37 10° N visible
25 Apr 5.3 02:18:23 19° NE 02:18:23 19° NE 02:20:25 10° NNE visible
25 Apr 4.9 03:59:27 15° NW 03:59:27 15° NW 04:00:27 10° NW visible
26 Apr 5.7 01:53:18 13° NE 01:53:18 13° NE 01:54:32 10° NE visible
26 Apr 4.6 03:34:22 23° NNW 03:34:22 23° NNW 03:36:18 10° NNW visible
27 Apr 4.4 03:09:17 30° N 03:09:17 30° N 03:11:45 10° N visible
28 Apr 4.6 02:44:12 30° NNE 02:44:12 30° NNE 02:46:57 10° N visible
29 Apr 5.0 02:19:08 22° NE 02:19:08 22° NE 02:21:47 10° NNE visible
29 Apr 4.7 04:00:12 17° NW 04:00:12 17° NW 04:01:40 10° NW visible
30 Apr 5.5 01:54:04 14° NE 01:54:04 14° NE 01:56:02 10° NNE visible
30 Apr 4.3 03:35:07 27° NW 03:35:07 27° NW 03:37:34 10° NNW visible
